Tracking 25711 objects as of 22-May-2022
HD Live streaming from Space Station
objects crossing your sky now

SATCOM 3 DEB

Track SATCOM 3 DEB now!


NORAD ID: 32987
Int'l Code: 1979-101N
Perigee: 7,787.1 km
Apogee: 35,838.8 km
Inclination: 7.3 °
Period: 784.8 minutes
Semi major axis: 28183 km
RCS: 0.005 m2 (small)
Launch date: December 7, 1979
Source: United States (US)
Launch site: AIR FORCE EASTERN TEST RANGE (AFETR)

Note: This is SATELLITE DEBRIS
aabbcc
Your satellite tracking list
Your tracking list is empty




NASA's NSSDC Master Catalog

Two Line Element Set (TLE):
1 32987U 79101N   22142.38076156 -.00000055  00000-0  00000-0 0  9995
2 32987   7.2825 179.1916 4976551 286.9359 294.0667  1.83484838 95609
Source of the keplerian elements: AFSPC